Location: Cactus School
(34.5700°N, 118.0931°W)
Time: 21:31:14
(UTC-08:00)

Tiros 1 - Pass Details

Date: 26 November 2019
Orbit: 630 x 664 km, 48.4° (Epoch: 08 December)

Event Time Altitude Azimuth Distance (km) Brightness Sun altitude
Rises 09:55:14 0° 214° (SW) 2,923 10.9 29.2°
Reaches altitude 10° 09:57:38 10° 208° (SSW) 2,012 10.2 29.4°
Maximum altitude 10:02:03 45° 136° (SE) 864 9.5 29.8°
Drops below altitude 10° 10:06:26 10° 64° (ENE) 2,008 9.8 30.2°
Sets 10:08:50 0° 58° (ENE) 2,917 10.5 30.4°
